Weather History for Tillamook, OR

Change the Weather History Date:

Monday, January 14, 2013

  Actual Average (KMMV) Record (KMMV)
Temperature  
Mean Temperature 34 °F 41 °F  
Max Temperature 41 °F 48 °F 62 °F (1958)
Min Temperature 28 °F 34 °F 11 °F (1950)
Degree Days  
Heating Degree Days 30 24  
Month to date heating degree days 348  
Since 1 July heating degree days 2353  
Cooling Degree Days 0 0  
Month to date cooling degree days 0  
Year to date cooling degree days 0  
Moisture  
Dew Point 34 °F    
Average Humidity 96    
Maximum Humidity 100    
Minimum Humidity 87    
Precipitation  
Precipitation 0.07 in 0.18 in 2.02 in (1901)
Month to date precipitation 3.01  
Year to date precipitation 3.01  
Sea Level Pressure  
Sea Level Pressure 30.51 in    
Wind  
Wind Speed 1 mph (SE)    
Max Wind Speed 5 mph    
Max Gust Speed -    
Visibility 6 miles    
Events Rain , Snow    
T = Trace of Precipitation, MM = Missing Value Source: NWS Daily Summary

Daily Weather History Graph

Daily Weather History Graph

Search for Another Location

Airport:

Trip Planner

Search our weather history database for the weather conditions in past years. The results will help you decide how hot, cold, wet, or windy it might be!

Date:

Astronomy

Jan. 14, 2013 Rise Set
Actual Time 8:51 AM MST 5:57 PM MST
Civil Twilight 8:18 AM MST 6:30 PM MST
Nautical Twilight 7:41 AM MST 7:07 PM MST
Astronomical Twilight 7:06 AM MST 7:43 PM MST
Moon 10:16 AM MST (1/14) 10:03 PM MST (1/14)
Length of Visible Light 10h 12m
Length of Day
9h 06m
Waxing Crescent, 12% of the Moon is Illuminated
Jan 14
Waxing Crescent
Jan 18
First Quarter
Jan 26
Full
Feb 3
Last Quarter
Feb 10
New

Hourly Weather History & Observations

Time (MST) Temp. Windchill Dew Point Humidity Pressure Visibility Wind Dir Wind Speed Gust Speed Precip Events Conditions
12:15 AM 30.2 °F - 28.4 °F 93% 30.48 in 10.0 mi Calm Calm - N/A   Clear
12:35 AM 30.2 °F 25.4 °F 28.4 °F 93% 30.48 in 5.0 mi SE 4.6 mph - N/A   Clear
12:55 AM 28.4 °F - 28.4 °F 100% 30.49 in 10.0 mi Calm Calm - N/A   Clear
1:15 AM 28.4 °F - 28.4 °F 100% 30.49 in 10.0 mi Calm Calm - N/A   Scattered Clouds
1:55 AM 30.2 °F 26.7 °F 28.4 °F 93% 30.48 in 10.0 mi SE 3.5 mph - N/A   Mostly Cloudy
2:15 AM 30.2 °F - 30.2 °F 100% 30.49 in 10.0 mi Calm Calm - N/A   Overcast
2:35 AM 30.2 °F - 28.4 °F 93% 30.49 in 10.0 mi Calm Calm - N/A   Scattered Clouds
2:55 AM 30.2 °F 25.4 °F 28.4 °F 93% 30.49 in 10.0 mi SE 4.6 mph - N/A   Mostly Cloudy
3:15 AM 30.2 °F 25.4 °F 30.2 °F 100% 30.49 in 10.0 mi SE 4.6 mph - N/A   Overcast
3:35 AM 32.0 °F - 30.2 °F 93% 30.49 in 10.0 mi Calm Calm - N/A   Overcast
3:55 AM 32.0 °F 28.7 °F 30.2 °F 93% 30.49 in 10.0 mi SE 3.5 mph - N/A   Overcast
4:15 AM 32.0 °F 28.7 °F 30.2 °F 93% 30.48 in 10.0 mi SE 3.5 mph - N/A   Overcast
4:35 AM 32.0 °F - 30.2 °F 93% 30.48 in 10.0 mi Calm Calm - N/A   Overcast
4:55 AM 32.0 °F - 30.2 °F 93% 30.49 in 10.0 mi Calm Calm - N/A   Overcast
5:15 AM 32.0 °F - 30.2 °F 93% 30.49 in 10.0 mi Calm Calm - N/A   Overcast
5:35 AM 32.0 °F - 30.2 °F 93% 30.50 in 10.0 mi Calm Calm - N/A   Overcast
5:55 AM 32.0 °F 28.7 °F 30.2 °F 93% 30.50 in 10.0 mi ESE 3.5 mph - N/A Snow Light Snow
6:15 AM 32.0 °F - 30.2 °F 93% 30.49 in 7.0 mi Calm Calm - N/A Snow Light Snow
6:35 AM 32.0 °F - 30.2 °F 93% 30.49 in 10.0 mi Calm Calm - N/A   Mostly Cloudy
6:55 AM 32.0 °F - 32.0 °F 100% 30.50 in 10.0 mi Calm Calm - N/A   Mostly Cloudy
7:15 AM 32.0 °F - 30.2 °F 93% 30.51 in 10.0 mi Calm Calm - N/A   Mostly Cloudy
7:35 AM 32.0 °F 28.7 °F 30.2 °F 93% 30.51 in 5.0 mi SE 3.5 mph - N/A Snow Light Snow
7:55 AM 32.0 °F 28.7 °F 30.2 °F 93% 30.51 in 10.0 mi SE 3.5 mph - N/A   Mostly Cloudy
8:15 AM 32.0 °F 28.7 °F 30.2 °F 93% 30.52 in 10.0 mi SE 3.5 mph - N/A   Mostly Cloudy
8:35 AM 32.0 °F 28.7 °F 30.2 °F 93% 30.52 in 10.0 mi SE 3.5 mph - N/A   Mostly Cloudy
8:55 AM 32.0 °F 28.7 °F 30.2 °F 93% 30.52 in 7.0 mi SSE 3.5 mph - N/A   Mostly Cloudy
9:15 AM 32.0 °F - 32.0 °F 100% 30.52 in 7.0 mi Calm Calm - N/A   Overcast
9:35 AM 32.0 °F 28.7 °F 32.0 °F 100% 30.51 in 7.0 mi East 3.5 mph - N/A   Mostly Cloudy
9:55 AM 33.8 °F 30.8 °F 32.0 °F 93% 30.51 in 10.0 mi SSE 3.5 mph - N/A   Mostly Cloudy
10:15 AM 33.8 °F - 32.0 °F 93% 30.52 in 10.0 mi Calm Calm - N/A   Mostly Cloudy
10:35 AM 33.8 °F - 32.0 °F 93% 30.53 in 10.0 mi Calm Calm - N/A   Overcast
10:55 AM 33.8 °F - 32.0 °F 93% 30.53 in 10.0 mi Calm Calm - N/A   Overcast
11:15 AM 33.8 °F - 32.0 °F 93% 30.54 in 10.0 mi Calm Calm - N/A   Overcast
11:35 AM 35.6 °F - 32.0 °F 87% 30.54 in 10.0 mi Calm Calm - N/A   Overcast
11:55 AM 35.6 °F - 33.8 °F 93% 30.54 in 10.0 mi Calm Calm - N/A   Overcast
12:15 PM 35.6 °F - 33.8 °F 93% 30.53 in 7.0 mi Calm Calm - N/A   Overcast
12:35 PM 37.4 °F - 35.6 °F 93% 30.53 in 3.0 mi Calm Calm - N/A   Overcast
12:55 PM 37.4 °F - 35.6 °F 93% 30.52 in 2.5 mi Calm Calm - N/A   Overcast
1:15 PM 37.4 °F - 35.6 °F 93% 30.51 in 1.8 mi Calm Calm - N/A   Overcast
1:55 PM 37.4 °F - 37.4 °F 100% 30.51 in 1.2 mi Calm Calm - N/A   Overcast
2:15 PM 37.4 °F - 37.4 °F 100% 30.51 in 1.2 mi Calm Calm - N/A   Overcast
2:35 PM 39.2 °F - 37.4 °F 93% 30.51 in 1.2 mi Calm Calm - N/A   Overcast
3:15 PM 39.2 °F - 39.2 °F 100% 30.52 in 1.5 mi Calm Calm - N/A Rain Light Rain
3:35 PM 39.2 °F - 39.2 °F 100% 30.52 in 1.2 mi Calm Calm - N/A Rain Light Rain
3:55 PM 39.2 °F - 39.2 °F 100% 30.53 in 1.2 mi Calm Calm - N/A   Drizzle
4:15 PM 39.2 °F - 39.2 °F 100% 30.53 in 1.5 mi Calm Calm - 0.01 in   Light Drizzle
4:35 PM 41.0 °F - 39.2 °F 93% 30.52 in 1.2 mi Calm Calm - 0.01 in   Light Drizzle
4:55 PM 41.0 °F - 41.0 °F 100% 30.52 in 0.8 mi Calm Calm - 0.01 in   Overcast
5:15 PM 41.0 °F - 41.0 °F 100% 30.52 in 1.0 mi Calm Calm - N/A   Drizzle
5:35 PM 41.0 °F - 41.0 °F 100% 30.52 in 1.2 mi Calm Calm - 0.01 in   Drizzle
5:55 PM 39.2 °F - 39.2 °F 100% 30.52 in 1.5 mi Calm Calm - 0.01 in   Overcast
6:15 PM 39.2 °F - 39.2 °F 100% 30.52 in 1.8 mi Calm Calm - N/A Rain Rain
6:55 PM 39.2 °F - 39.2 °F 100% 30.53 in 1.2 mi Calm Calm - 0.01 in Rain Heavy Rain
7:15 PM 39.2 °F - 39.2 °F 100% 30.52 in 2.0 mi Calm Calm - 0.01 in   Overcast
7:35 PM 39.2 °F - 39.2 °F 100% 30.52 in 2.5 mi Calm Calm - 0.01 in   Overcast
7:55 PM 39.2 °F - 39.2 °F 100% 30.53 in 1.5 mi Calm Calm - 0.01 in   Drizzle
8:15 PM 39.2 °F - 39.2 °F 100% 30.53 in 1.5 mi Calm Calm - N/A Rain Rain
8:35 PM 39.2 °F - 39.2 °F 100% 30.53 in 1.5 mi Calm Calm - 0.01 in   Drizzle
8:55 PM 39.2 °F - 39.2 °F 100% 30.53 in 1.8 mi Calm Calm - 0.01 in   Light Drizzle
9:15 PM 39.2 °F - 39.2 °F 100% 30.53 in 2.5 mi Calm Calm - N/A   Overcast
9:35 PM 39.2 °F 37.0 °F 39.2 °F 100% 30.54 in 2.0 mi ESE 3.5 mph - 0.01 in   Light Drizzle
9:55 PM 39.2 °F - 39.2 °F 100% 30.55 in 2.0 mi Calm Calm - 0.01 in Rain Light Rain
10:15 PM 39.2 °F 37.0 °F 39.2 °F 100% 30.54 in 3.0 mi SSE 3.5 mph - N/A   Overcast
10:35 PM 39.2 °F 37.0 °F 39.2 °F 100% 30.54 in 4.0 mi SE 3.5 mph - N/A   Overcast
10:55 PM 39.2 °F - 39.2 °F 100% 30.54 in 2.5 mi Calm Calm - N/A   Overcast
11:15 PM 39.2 °F - 39.2 °F 100% 30.54 in 3.0 mi Calm Calm - N/A   Overcast
11:35 PM 39.2 °F - 39.2 °F 100% 30.54 in 1.8 mi Calm Calm - N/A   Overcast
11:55 PM 39.2 °F - 39.2 °F 100% 30.54 in 3.0 mi Calm Calm - 0.01 in   Overcast